When you browse on this site, cookies collect data to enhance your experience and personalize the content and advertising you see.
Visit our Privacy Policy to learn more. By continuing to use the site, you agree to this use of cookies and data.
  • în România
  • Lista ţărilor
  • Pe 7 zile
  • Temperatura apei
  • Hartă satelitară
  • Meteo pe hartă
  • Widget-uri
  • user-avatar
    Intrare

    Meteo pe oră la Kobiela

    Astăzi, 19 Decembrie, Miercuri

    Timp Temperatura Precipitaţii Vânt Presiune Umiditate
    00:00 -4°C° 0 mm 2 m/s 750 mmHg 92%
    01:00 -4°C° 0 mm 2 m/s 750 mmHg 92%
    02:00 -5°C° 0 mm 2 m/s 750 mmHg 92%
    03:00 -5°C° 0 mm 2 m/s 749 mmHg 92%
    04:00 -5°C° 0 mm 2 m/s 749 mmHg 92%
    05:00 -6°C° 0 mm 2 m/s 749 mmHg 91%
    06:00 -6°C° 0 mm 2 m/s 749 mmHg 90%
    07:00 -6°C° 0 mm 2 m/s 749 mmHg 90%
    08:00 -5°C° 0 mm 2 m/s 749 mmHg 87%
    09:00 -6°C° 0 mm 3 m/s 749 mmHg 85%
    10:00 -5°C° 0 mm 3 m/s 748 mmHg 82%
    11:00 -4°C° 0 mm 3 m/s 748 mmHg 81%
    12:00 -2°C° 0 mm 3 m/s 748 mmHg 80%
    13:00 -2°C° 0 mm 3 m/s 747 mmHg 79%
    14:00 -2°C° 0 mm 2 m/s 747 mmHg 82%
    15:00 -3°C° 0 mm 2 m/s 747 mmHg 85%
    16:00 -4°C° 0 mm 2 m/s 747 mmHg 88%
    17:00 -5°C° 0 mm 2 m/s 747 mmHg 88%
    18:00 -5°C° 0 mm 2 m/s 746 mmHg 88%
    19:00 -5°C° 0 mm 2 m/s 746 mmHg 89%
    20:00 -5°C° 0 mm 2 m/s 746 mmHg 88%
    21:00 -5°C° 0 mm 2 m/s 746 mmHg 88%
    22:00 -5°C° 0 mm 2 m/s 746 mmHg 87%
    23:00 -5°C° 0 mm 2 m/s 746 mmHg 87%

    Mâine, 20 Decembrie, Joi

    Timp Temperatura Precipitaţii Vânt Presiune Umiditate
    00:00 -5°C° 0 mm 2 m/s 745 mmHg 86%
    01:00 -5°C° 0 mm 2 m/s 745 mmHg 85%
    02:00 -4°C° 0 mm 2 m/s 745 mmHg 84%
    03:00 -4°C° 0 mm 2 m/s 745 mmHg 83%
    04:00 -4°C° 0 mm 2 m/s 744 mmHg 82%
    05:00 -4°C° 0 mm 2 m/s 744 mmHg 81%
    06:00 -1°C° 0 mm 1 m/s 744 mmHg 81%
    07:00 -1°C° 0 mm 1 m/s 744 mmHg 80%
    08:00 -1°C° 0 mm 1 m/s 744 mmHg 79%
    09:00 0°C° 0 mm 1 m/s 744 mmHg 79%
    10:00 +1°C° 0 mm 1 m/s 745 mmHg 78%
    11:00 +1°C° 0 mm 1 m/s 744 mmHg 78%
    12:00 +1°C° 0 mm 1 m/s 744 mmHg 79%
    13:00 -1°C° 0 mm 2 m/s 744 mmHg 79%
    14:00 +1°C° 0 mm 1 m/s 744 mmHg 81%
    15:00 0°C° 0 mm 1 m/s 744 mmHg 83%
    16:00 0°C° 0 mm 1 m/s 744 mmHg 84%
    17:00 -2°C° 0.1 mm 2 m/s 744 mmHg 86%
    18:00 -2°C° 0.1 mm 2 m/s 744 mmHg 87%
    19:00 -2°C° 0.1 mm 2 m/s 744 mmHg 88%
    20:00 -2°C° 0.2 mm 2 m/s 745 mmHg 89%
    21:00 -2°C° 0.2 mm 3 m/s 745 mmHg 90%
    22:00 -1°C° 0.2 mm 3 m/s 745 mmHg 90%
    23:00 -1°C° 0.1 mm 3 m/s 745 mmHg 90%

    Poimâine, 21 Decembrie, Vineri

    Timp Temperatura Precipitaţii Vânt Presiune Umiditate
    00:00 -1°C° 0.1 mm 3 m/s 745 mmHg 89%
    01:00 -1°C° 0.1 mm 3 m/s 745 mmHg 89%
    02:00 -1°C° 0 mm 3 m/s 744 mmHg 89%
    03:00 -2°C° 0 mm 3 m/s 744 mmHg 89%
    04:00 -2°C° 0 mm 3 m/s 744 mmHg 89%
    05:00 -2°C° 0 mm 3 m/s 744 mmHg 89%
    06:00 -2°C° 0 mm 3 m/s 744 mmHg 89%
    07:00 -2°C° 0 mm 3 m/s 744 mmHg 88%
    08:00 -1°C° 0 mm 3 m/s 743 mmHg 88%
    09:00 0°C° 0 mm 3 m/s 743 mmHg 87%
    10:00 0°C° 0 mm 4 m/s 743 mmHg 86%
    11:00 0°C° 0.2 mm 4 m/s 742 mmHg 86%
    12:00 0°C° 0.2 mm 4 m/s 742 mmHg 86%
    13:00 +1°C° 0.2 mm 4 m/s 741 mmHg 87%
    14:00 +1°C° 0.2 mm 4 m/s 741 mmHg 86%
    15:00 +1°C° 0.2 mm 4 m/s 740 mmHg 86%
    16:00 +1°C° 0.2 mm 4 m/s 739 mmHg 86%
    17:00 +1°C° 0.5 mm 4 m/s 739 mmHg 85%
    18:00 +1°C° 0.5 mm 4 m/s 738 mmHg 85%
    19:00 +1°C° 0.5 mm 4 m/s 738 mmHg 85%
    20:00 +1°C° 0.2 mm 5 m/s 737 mmHg 85%
    21:00 +1°C° 0.2 mm 5 m/s 736 mmHg 86%
    22:00 +1°C° 0.2 mm 5 m/s 736 mmHg 86%
    23:00 +2°C° 0.3 mm 6 m/s 735 mmHg 86%

    22 Decembrie, Sâmbătă

    Timp Temperatura Precipitaţii Vânt Presiune Umiditate
    00:00 +2°C° 0.3 mm 6 m/s 735 mmHg 86%
    01:00 +3°C° 0.3 mm 6 m/s 735 mmHg 86%
    02:00 +3°C° 0.2 mm 6 m/s 735 mmHg 86%
    03:00 +3°C° 0.2 mm 6 m/s 735 mmHg 87%
    04:00 +3°C° 0.2 mm 7 m/s 734 mmHg 87%
    05:00 +3°C° 0 mm 6 m/s 735 mmHg 87%
    06:00 +3°C° 0 mm 6 m/s 735 mmHg 88%
    07:00 +3°C° 0 mm 6 m/s 735 mmHg 89%
    08:00 +3°C° 0 mm 6 m/s 735 mmHg 89%
    09:00 +3°C° 0 mm 5 m/s 735 mmHg 89%
    10:00 +5°C° 0 mm 5 m/s 735 mmHg 89%
    11:00 +4°C° 0.1 mm 6 m/s 735 mmHg 88%
    12:00 +4°C° 0.1 mm 6 m/s 734 mmHg 88%
    13:00 +4°C° 0.1 mm 6 m/s 734 mmHg 87%
    14:00 +4°C° 0.1 mm 6 m/s 734 mmHg 87%
    15:00 +4°C° 0.1 mm 6 m/s 734 mmHg 87%
    16:00 +3°C° 0.1 mm 6 m/s 734 mmHg 86%
    17:00 +4°C° 0.2 mm 7 m/s 734 mmHg 86%
    18:00 +4°C° 0.2 mm 7 m/s 735 mmHg 86%
    19:00 +4°C° 0.2 mm 7 m/s 735 mmHg 85%
    20:00 +4°C° 0.2 mm 8 m/s 735 mmHg 83%
    21:00 +4°C° 0.2 mm 8 m/s 736 mmHg 81%
    22:00 +2°C° 0.2 mm 9 m/s 736 mmHg 79%
    23:00 +2°C° 0.1 mm 8 m/s 736 mmHg 78%

    23 Decembrie, Duminică

    Timp Temperatura Precipitaţii Vânt Presiune Umiditate
    00:00 +2°C° 0.1 mm 8 m/s 736 mmHg 78%
    01:00 +2°C° 0.1 mm 8 m/s 737 mmHg 78%
    02:00 +3°C° 0 mm 7 m/s 737 mmHg 79%
    03:00 +3°C° 0 mm 7 m/s 737 mmHg 79%
    04:00 +2°C° 0 mm 7 m/s 737 mmHg 80%
    05:00 +2°C° 0 mm 7 m/s 737 mmHg 81%
    06:00 +2°C° 0 mm 7 m/s 737 mmHg 82%
    07:00 +2°C° 0 mm 7 m/s 737 mmHg 83%
    08:00 +2°C° 0.1 mm 7 m/s 738 mmHg 82%
    09:00 +3°C° 0.1 mm 7 m/s 738 mmHg 81%
    10:00 +3°C° 0.1 mm 7 m/s 739 mmHg 80%
    11:00 +3°C° 0.2 mm 7 m/s 739 mmHg 79%
    12:00 +3°C° 0.2 mm 7 m/s 739 mmHg 79%
    13:00 +3°C° 0.2 mm 7 m/s 739 mmHg 78%
    14:00 +3°C° 0.3 mm 7 m/s 739 mmHg 79%
    15:00 +3°C° 0.3 mm 7 m/s 739 mmHg 81%
    16:00 +3°C° 0.3 mm 7 m/s 740 mmHg 82%
    17:00 +2°C° 0.1 mm 6 m/s 740 mmHg 82%
    18:00 +2°C° 0.1 mm 6 m/s 740 mmHg 82%
    19:00 +2°C° 0.1 mm 6 m/s 740 mmHg 81%
    20:00 +2°C° 0.3 mm 6 m/s 740 mmHg 82%
    21:00 +2°C° 0.3 mm 6 m/s 740 mmHg 82%
    22:00 +2°C° 0.3 mm 6 m/s 740 mmHg 82%
    23:00 +2°C° 0.2 mm 6 m/s 740 mmHg 83%

    24 Decembrie, Luni

    Timp Temperatura Precipitaţii Vânt Presiune Umiditate
    00:00 +1°C° 0.2 mm 5 m/s 740 mmHg 83%
    01:00 +1°C° 0.2 mm 5 m/s 740 mmHg 84%
    02:00 +1°C° 0.5 mm 5 m/s 740 mmHg 84%
    03:00 +1°C° 0.5 mm 6 m/s 740 mmHg 83%
    04:00 +1°C° 0.5 mm 6 m/s 740 mmHg 83%
    05:00 +1°C° 0.5 mm 6 m/s 740 mmHg 84%
    06:00 +1°C° 0.5 mm 6 m/s 741 mmHg 85%
    07:00 -1°C° 0.5 mm 7 m/s 741 mmHg 86%
    08:00 -1°C° 0.1 mm 6 m/s 742 mmHg 84%
    09:00 0°C° 0.1 mm 5 m/s 743 mmHg 83%
    10:00 -1°C° 0.1 mm 5 m/s 744 mmHg 81%
    11:00 0°C° 0 mm 5 m/s 744 mmHg 79%
    12:00 0°C° 0 mm 4 m/s 745 mmHg 77%
    13:00 0°C° 0 mm 4 m/s 745 mmHg 75%
    14:00 0°C° 0.1 mm 4 m/s 745 mmHg 79%
    15:00 +1°C° 0.1 mm 3 m/s 745 mmHg 82%
    16:00 0°C° 0.1 mm 3 m/s 745 mmHg 86%
    17:00 +1°C° 0.2 mm 3 m/s 745 mmHg 87%
    18:00 0°C° 0.2 mm 4 m/s 745 mmHg 88%
    19:00 +1°C° 0.2 mm 5 m/s 745 mmHg 89%
    20:00 +1°C° 0.2 mm 5 m/s 745 mmHg 90%
    21:00 0°C° 0.2 mm 5 m/s 745 mmHg 90%
    22:00 0°C° 0.2 mm 4 m/s 745 mmHg 90%
    23:00 0°C° 0.3 mm 5 m/s 745 mmHg 90%
    Arată mai mult